When you browse on this site, cookies collect data to enhance your experience and personalize the content and advertising you see.
Visit our Privacy Policy to learn more. By continuing to use the site, you agree to this use of cookies and data.
  • In United Kingdom
  • List of Countries
  • For 7 days
  • Water Temperature
  • Satellite Maps
  • Weather Map
  • Weather Widgets
  • user-avatar
    Login

    Hourly Weather Dankon

    Today, 21 November, Wednesday

    Time Temperature Precipitation Wind Pressure Humidity
    00:00 +19°C° 0 mm 0 mps 704 mmHg 94%
    01:00 +19°C° 0 mm 0 mps 704 mmHg 96%
    02:00 +19°C° 0 mm 0 mps 704 mmHg 96%
    03:00 +19°C° 0 mm 0 mps 704 mmHg 97%
    04:00 +18°C° 0 mm 0 mps 704 mmHg 98%
    05:00 +19°C° 0 mm 0 mps 704 mmHg 97%
    06:00 +19°C° 0 mm 0 mps 704 mmHg 96%
    07:00 +20°C° 0 mm 0 mps 705 mmHg 92%
    08:00 +23°C° 0 mm 0 mps 705 mmHg 81%
    09:00 +26°C° 0 mm 0 mps 706 mmHg 69%
    10:00 +29°C° 0 mm 0 mps 706 mmHg 57%
    11:00 +30°C° 0 mm 0 mps 706 mmHg 51%
    12:00 +31°C° 0 mm 0 mps 705 mmHg 45%
    13:00 +31°C° 0 mm 0 mps 705 mmHg 41%
    14:00 +31°C° 0 mm 0 mps 704 mmHg 44%
    15:00 +30°C° 0 mm 0 mps 704 mmHg 46%
    16:00 +29°C° 0 mm 0 mps 703 mmHg 49%
    17:00 +27°C° 0 mm 0 mps 703 mmHg 56%
    18:00 +24°C° 0 mm 0 mps 703 mmHg 64%
    19:00 +22°C° 0 mm 0 mps 703 mmHg 74%
    20:00 +21°C° 0 mm 0 mps 703 mmHg 76%
    21:00 +21°C° 0 mm 0 mps 704 mmHg 79%
    22:00 +20°C° 0 mm 0 mps 704 mmHg 81%
    23:00 +20°C° 0 mm 0 mps 704 mmHg 83%

    Tomorrow, 22 November, Thursday

    Time Temperature Precipitation Wind Pressure Humidity
    00:00 +19°C° 0 mm 0 mps 704 mmHg 84%
    01:00 +19°C° 0 mm 0 mps 704 mmHg 86%
    02:00 +19°C° 0 mm 0 mps 704 mmHg 88%
    03:00 +19°C° 0 mm 0 mps 704 mmHg 90%
    04:00 +18°C° 0 mm 0 mps 704 mmHg 91%
    05:00 +19°C° 0.1 mm 0 mps 705 mmHg 91%
    06:00 +19°C° 0.1 mm 0 mps 705 mmHg 91%
    07:00 +19°C° 0.1 mm 0 mps 705 mmHg 91%
    08:00 +21°C° 0.3 mm 0 mps 706 mmHg 86%
    09:00 +25°C° 0.3 mm 1 mps 706 mmHg 81%
    10:00 +27°C° 0.3 mm 1 mps 707 mmHg 76%
    11:00 +26°C° 0.5 mm 0 mps 707 mmHg 72%
    12:00 +27°C° 0.5 mm 0 mps 706 mmHg 67%
    13:00 +28°C° 0.5 mm 0 mps 706 mmHg 63%
    14:00 +27°C° 0.5 mm 0 mps 705 mmHg 68%
    15:00 +26°C° 0.5 mm 0 mps 705 mmHg 73%
    16:00 +25°C° 0.5 mm 0 mps 704 mmHg 78%
    17:00 +24°C° 0.3 mm 0 mps 705 mmHg 83%
    18:00 +22°C° 0.3 mm 0 mps 705 mmHg 87%
    19:00 +20°C° 0.3 mm 0 mps 705 mmHg 92%
    20:00 +19°C° 0 mm 0 mps 705 mmHg 93%
    21:00 +19°C° 0 mm 0 mps 706 mmHg 94%
    22:00 +18°C° 0 mm 0 mps 706 mmHg 95%
    23:00 +18°C° 0 mm 0 mps 706 mmHg 96%

    Day after tomorrow, 23 November, Friday

    Time Temperature Precipitation Wind Pressure Humidity
    00:00 +18°C° 0 mm 0 mps 706 mmHg 97%
    01:00 +17°C° 0 mm 0 mps 706 mmHg 97%
    02:00 +17°C° 0 mm 0 mps 706 mmHg 97%
    03:00 +17°C° 0 mm 0 mps 706 mmHg 98%
    04:00 +16°C° 0 mm 0 mps 706 mmHg 98%
    05:00 +18°C° 0 mm 1 mps 706 mmHg 97%
    06:00 +18°C° 0 mm 1 mps 706 mmHg 97%
    07:00 +18°C° 0 mm 1 mps 707 mmHg 96%
    08:00 +21°C° 0 mm 1 mps 707 mmHg 84%
    09:00 +24°C° 0 mm 1 mps 708 mmHg 71%
    10:00 +26°C° 0 mm 1 mps 708 mmHg 59%
    11:00 +28°C° 0 mm 1 mps 707 mmHg 54%
    12:00 +29°C° 0 mm 1 mps 707 mmHg 49%
    13:00 +31°C° 0 mm 1 mps 706 mmHg 44%
    14:00 +30°C° 0 mm 1 mps 705 mmHg 47%
    15:00 +28°C° 0 mm 0 mps 705 mmHg 49%
    16:00 +27°C° 0 mm 0 mps 704 mmHg 51%
    17:00 +25°C° 0 mm 0 mps 704 mmHg 61%
    18:00 +22°C° 0 mm 0 mps 704 mmHg 70%
    19:00 +20°C° 0 mm 0 mps 704 mmHg 80%
    20:00 +19°C° 0 mm 0 mps 705 mmHg 83%
    21:00 +19°C° 0 mm 0 mps 705 mmHg 86%
    22:00 +20°C° 0 mm 1 mps 705 mmHg 89%
    23:00 +18°C° 0 mm 0 mps 705 mmHg 90%

    24 November, Saturday

    Time Temperature Precipitation Wind Pressure Humidity
    00:00 +18°C° 0 mm 0 mps 705 mmHg 92%
    01:00 +18°C° 0 mm 0 mps 705 mmHg 93%
    02:00 +17°C° 0 mm 0 mps 705 mmHg 94%
    03:00 +17°C° 0 mm 0 mps 704 mmHg 96%
    04:00 +17°C° 0 mm 0 mps 704 mmHg 97%
    05:00 +17°C° 0 mm 0 mps 704 mmHg 96%
    06:00 +17°C° 0 mm 0 mps 705 mmHg 96%
    07:00 +17°C° 0 mm 0 mps 705 mmHg 95%
    08:00 +20°C° 0 mm 0 mps 706 mmHg 83%
    09:00 +23°C° 0 mm 0 mps 707 mmHg 71%
    10:00 +26°C° 0 mm 0 mps 707 mmHg 59%
    11:00 +27°C° 0 mm 0 mps 706 mmHg 53%
    12:00 +31°C° 0 mm 1 mps 705 mmHg 48%
    13:00 +32°C° 0 mm 1 mps 705 mmHg 43%
    14:00 +31°C° 0 mm 1 mps 704 mmHg 45%
    15:00 +28°C° 0 mm 0 mps 704 mmHg 48%
    16:00 +28°C° 0 mm 0 mps 703 mmHg 50%
    17:00 +25°C° 0 mm 0 mps 703 mmHg 59%
    18:00 +23°C° 0 mm 0 mps 704 mmHg 68%
    19:00 +21°C° 0 mm 0 mps 704 mmHg 77%
    20:00 +20°C° 0 mm 0 mps 704 mmHg 79%
    21:00 +19°C° 0 mm 0 mps 705 mmHg 81%
    22:00 +19°C° 0 mm 0 mps 705 mmHg 84%
    23:00 +18°C° 0 mm 0 mps 705 mmHg 87%

    25 November, Sunday

    Time Temperature Precipitation Wind Pressure Humidity
    00:00 +20°C° 0 mm 1 mps 705 mmHg 89%
    01:00 +19°C° 0 mm 1 mps 704 mmHg 92%
    02:00 +19°C° 0 mm 1 mps 704 mmHg 93%
    03:00 +19°C° 0 mm 1 mps 704 mmHg 94%
    04:00 +18°C° 0 mm 1 mps 704 mmHg 95%
    05:00 +18°C° 0 mm 1 mps 704 mmHg 95%
    06:00 +18°C° 0 mm 1 mps 704 mmHg 95%
    07:00 +18°C° 0 mm 1 mps 705 mmHg 95%
    08:00 +21°C° 0 mm 1 mps 705 mmHg 83%
    09:00 +23°C° 0 mm 1 mps 706 mmHg 71%
    10:00 +26°C° 0 mm 1 mps 707 mmHg 59%
    11:00 +27°C° 0 mm 1 mps 706 mmHg 54%
    12:00 +28°C° 0 mm 1 mps 705 mmHg 50%
    13:00 +30°C° 0 mm 1 mps 704 mmHg 45%
    14:00 +29°C° 0 mm 1 mps 704 mmHg 47%
    15:00 +29°C° 0 mm 1 mps 703 mmHg 48%
    16:00 +29°C° 0 mm 1 mps 703 mmHg 50%
    17:00 +26°C° 0 mm 1 mps 703 mmHg 59%
    18:00 +24°C° 0 mm 1 mps 703 mmHg 68%
    19:00 +21°C° 0 mm 1 mps 704 mmHg 77%
    20:00 +21°C° 0 mm 1 mps 704 mmHg 80%
    21:00 +20°C° 0 mm 1 mps 704 mmHg 83%
    22:00 +19°C° 0 mm 1 mps 705 mmHg 86%
    23:00 +19°C° 0 mm 1 mps 704 mmHg 88%

    26 November, Monday

    Time Temperature Precipitation Wind Pressure Humidity
    00:00 +18°C° 0 mm 1 mps 704 mmHg 91%
    01:00 +18°C° 0 mm 1 mps 704 mmHg 93%
    02:00 +16°C° 0 mm 1 mps 704 mmHg 94%
    03:00 +16°C° 0 mm 1 mps 704 mmHg 95%
    04:00 +16°C° 0 mm 1 mps 703 mmHg 97%
    05:00 +16°C° 0 mm 1 mps 704 mmHg 97%
    06:00 +16°C° 0 mm 1 mps 704 mmHg 97%
    07:00 +16°C° 0 mm 1 mps 705 mmHg 97%
    08:00 +19°C° 0 mm 1 mps 705 mmHg 84%
    09:00 +22°C° 0 mm 1 mps 706 mmHg 71%
    10:00 +24°C° 0 mm 1 mps 706 mmHg 58%
    11:00 +26°C° 0 mm 2 mps 706 mmHg 53%
    12:00 +27°C° 0 mm 2 mps 705 mmHg 48%
    13:00 +28°C° 0 mm 2 mps 704 mmHg 43%
    14:00 +28°C° 0 mm 2 mps 704 mmHg 44%
    15:00 +28°C° 0 mm 1 mps 704 mmHg 45%
    16:00 +28°C° 0 mm 1 mps 703 mmHg 47%
    17:00 +25°C° 0 mm 1 mps 704 mmHg 55%
    18:00 +23°C° 0 mm 1 mps 705 mmHg 63%
    19:00 +21°C° 0 mm 1 mps 705 mmHg 72%
    20:00 +20°C° 0 mm 1 mps 705 mmHg 76%
    21:00 +19°C° 0 mm 1 mps 706 mmHg 81%
    22:00 +18°C° 0 mm 1 mps 706 mmHg 85%
    23:00 +16°C° 0 mm 1 mps 706 mmHg 88%
    Show more